Location: Unspecified
(51.7359°N, 0.5011°E)
Time: 06:33:19
(UTC+00:00)

Okean 3 - Visible Passes

Search period start: 18 February 2019 00:00
Search period end: 28 February 2019 00:00
Orbit: 577 x 602 km, 82.5° (Epoch: 16 February)

Date Brightness Start Highest point End Pass type
(mag) Time Alt. Az. Time Alt. Az. Time Alt. Az.
18 Feb 4.3 18:58:35 10° N 19:02:15 30° ENE 19:02:15 30° ENE visible
18 Feb 5.3 20:35:47 10° NNW 20:38:49 31° WNW 20:38:49 31° WNW visible
19 Feb 3.9 19:06:25 10° N 19:10:29 40° ENE 19:11:02 39° E visible
19 Feb 5.6 20:44:02 10° NNW 20:47:32 24° W 20:47:38 24° W visible
20 Feb 3.5 19:14:18 10° N 19:18:33 57° ENE 19:20:01 37° SE visible
20 Feb 6.1 20:52:28 10° NW 20:55:22 18° W 20:56:37 16° WSW visible
21 Feb 3.3 19:22:14 10° N 19:26:34 81° ENE 19:29:13 23° SSE visible
21 Feb 6.5 21:01:11 10° NW 21:03:10 13° W 21:05:10 10° WSW visible
22 Feb 5.1 17:54:06 10° NNE 17:56:46 16° ENE 17:59:27 10° E visible
22 Feb 3.7 19:30:15 10° NNW 19:34:34 72° W 19:38:49 10° S visible
23 Feb 4.8 18:01:38 10° NNE 18:04:57 21° ENE 18:08:16 10° ESE visible
23 Feb 4.3 19:38:19 10° NNW 19:42:30 51° W 19:46:40 10° S visible
24 Feb 4.4 18:09:20 10° N 18:13:06 28° ENE 18:16:50 10° SE visible
24 Feb 5.1 19:46:28 10° NNW 19:50:25 36° W 19:54:22 10° SSW visible
25 Feb 4.0 18:17:09 10° N 18:21:12 38° ENE 18:25:14 10° SE visible
25 Feb 5.7 19:54:42 10° NNW 19:58:18 26° W 20:01:52 10° SW visible
26 Feb 3.6 18:25:02 10° N 18:29:16 53° ENE 18:33:29 10° SSE visible
26 Feb 6.2 20:03:05 10° NW 20:06:08 19° W 20:09:11 10° SW visible
27 Feb 3.4 18:32:57 10° N 18:37:17 76° ENE 18:41:37 10° SSE visible
27 Feb 6.7 20:11:42 10° NW 20:13:56 14° W 20:16:10 10° WSW visible
